owner,sensor,date,latitude,longitude,vertical_datum,sea_water_temperature,qcFlag
BP,ioos:station:wmo:42865:1,2021-12-01T00:08:00Z,28.2083,-88.4183,16.7,24.9,11111222
BP,ioos:station:wmo:42865:1,2021-12-01T00:18:00Z,28.2083,-88.4183,16.6,24.9,11111222
BP,ioos:station:wmo:42865:1,2021-12-01T00:28:00Z,28.2083,-88.4183,16.7,24.9,11111222
BP,ioos:station:wmo:42865:1,2021-12-01T00:38:00Z,28.2083,-88.4183,16.6,25.0,11111222
BP,ioos:station:wmo:42865:1,2021-12-01T00:48:00Z,28.2083,-88.4183,16.6,25.0,11111222
BP,ioos:station:wmo:42865:1,2021-12-01T00:58:00Z,28.2083,-88.4183,16.7,25.0,11111222
BP,ioos:station:wmo:42865:1,2021-12-01T01:08:00Z,28.2083,-88.4183,16.7,25.0,11111222
BP,ioos:station:wmo:42865:1,2021-12-01T01:18:00Z,28.2083,-88.4183,16.6,25.0,11111222
BP,ioos:station:wmo:42865:1,2021-12-01T01:28:00Z,28.2083,-88.4183,16.8,25.0,11111222
BP,ioos:station:wmo:42865:1,2021-12-01T01:38:00Z,28.2083,-88.4183,16.7,25.0,11111222
BP,ioos:station:wmo:42865:1,2021-12-01T01:48:00Z,28.2083,-88.4183,16.7,25.0,11111222
BP,ioos:station:wmo:42865:1,2021-12-01T01:58:00Z,28.2083,-88.4183,16.7,25.0,11111222
BP,ioos:station:wmo:42865:1,2021-12-01T02:08:00Z,28.2083,-88.4183,16.8,25.0,11111222
BP,ioos:station:wmo:42865:1,2021-12-01T02:18:00Z,28.2083,-88.4183,16.8,25.0,11111222
BP,ioos:station:wmo:42865:1,2021-12-01T02:28:00Z,28.2083,-88.4183,16.8,25.1,11111222
BP,ioos:station:wmo:42865:1,2021-12-01T02:38:00Z,28.2083,-88.4183,16.8,25.1,11111222
BP,ioos:station:wmo:42865:1,2021-12-01T02:49:00Z,28.2083,-88.4183,16.8,25.1,11111222
BP,ioos:station:wmo:42865:1,2021-12-01T02:59:00Z,28.2083,-88.4183,16.8,25.2,11111222
BP,ioos:station:wmo:42865:1,2021-12-01T03:09:00Z,28.2083,-88.4183,16.8,25.3,11111222
BP,ioos:station:wmo:42865:1,2021-12-01T03:19:00Z,28.2083,-88.4183,16.7,25.4,11111222
BP,ioos:station:wmo:42865:1,2021-12-01T03:29:00Z,28.2083,-88.4183,16.6,25.5,11111222
BP,ioos:station:wmo:42865:1,2021-12-01T03:39:00Z,28.2083,-88.4183,16.7,25.5,11111222
BP,ioos:station:wmo:42865:1,2021-12-01T03:49:00Z,28.2083,-88.4183,16.7,25.6,11111222
BP,ioos:station:wmo:42865:1,2021-12-01T03:59:00Z,28.2083,-88.4183,16.7,25.6,11111222
BP,ioos:station:wmo:42865:1,2021-12-01T04:09:00Z,28.2083,-88.4183,16.6,25.7,11111222
BP,ioos:station:wmo:42865:1,2021-12-01T04:19:00Z,28.2083,-88.4183,16.7,25.7,11111222
BP,ioos:station:wmo:42865:1,2021-12-01T04:29:00Z,28.2083,-88.4183,16.6,25.7,11111222
BP,ioos:station:wmo:42865:1,2021-12-01T04:39:00Z,28.2083,-88.4183,16.7,25.7,11111222
BP,ioos:station:wmo:42865:1,2021-12-01T04:49:00Z,28.2083,-88.4183,16.7,25.8,11111222
BP,ioos:station:wmo:42865:1,2021-12-01T04:59:00Z,28.2083,-88.4183,16.7,25.8,11111222
BP,ioos:station:wmo:42865:1,2021-12-01T05:09:00Z,28.2083,-88.4183,16.7,25.8,11111222
BP,ioos:station:wmo:42865:1,2021-12-01T05:19:00Z,28.2083,-88.4183,16.7,25.8,11111222
BP,ioos:station:wmo:42865:1,2021-12-01T05:29:00Z,28.2083,-88.4183,16.7,25.8,11111222
BP,ioos:station:wmo:42865:1,2021-12-01T05:39:00Z,28.2083,-88.4183,16.7,25.8,11111222
BP,ioos:station:wmo:42865:1,2021-12-01T05:49:00Z,28.2083,-88.4183,16.7,25.8,11111222
BP,ioos:station:wmo:42865:1,2021-12-01T05:59:00Z,28.2083,-88.4183,16.7,25.8,11111222
BP,ioos:station:wmo:42865:1,2021-12-01T06:09:00Z,28.2083,-88.4183,16.7,25.8,11111222
BP,ioos:station:wmo:42865:1,2021-12-01T06:19:00Z,28.2083,-88.4183,16.7,25.8,11111222
BP,ioos:station:wmo:42865:1,2021-12-01T06:29:00Z,28.2083,-88.4183,16.6,25.8,11111222
BP,ioos:station:wmo:42865:1,2021-12-01T06:39:00Z,28.2083,-88.4183,16.7,25.8,11111222
BP,ioos:station:wmo:42865:1,2021-12-01T06:49:00Z,28.2083,-88.4183,16.6,25.8,11111222
BP,ioos:station:wmo:42865:1,2021-12-01T06:59:00Z,28.2083,-88.4183,16.6,25.8,11111222
BP,ioos:station:wmo:42865:1,2021-12-01T07:09:00Z,28.2083,-88.4183,16.6,25.8,11111222
BP,ioos:station:wmo:42865:1,2021-12-01T07:19:00Z,28.2083,-88.4183,16.6,25.8,11111222
BP,ioos:station:wmo:42865:1,2021-12-01T07:29:00Z,28.2083,-88.4183,16.7,25.8,11111222
BP,ioos:station:wmo:42865:1,2021-12-01T07:39:00Z,28.2083,-88.4183,16.7,25.8,11111222
BP,ioos:station:wmo:42865:1,2021-12-01T07:49:00Z,28.2083,-88.4183,16.7,25.9,11111222
BP,ioos:station:wmo:42865:1,2021-12-01T07:59:00Z,28.2083,-88.4183,16.7,25.9,11111222
BP,ioos:station:wmo:42865:1,2021-12-01T08:09:00Z,28.2083,-88.4183,16.7,25.9,11111222
BP,ioos:station:wmo:42865:1,2021-12-01T08:19:00Z,28.2083,-88.4183,16.6,25.9,11111222
BP,ioos:station:wmo:42865:1,2021-12-01T08:29:00Z,28.2083,-88.4183,16.5,25.9,11111222
BP,ioos:station:wmo:42865:1,2021-12-01T08:39:00Z,28.2083,-88.4183,16.5,25.9,11111222
BP,ioos:station:wmo:42865:1,2021-12-01T08:49:00Z,28.2083,-88.4183,16.8,25.8,11111222
BP,ioos:station:wmo:42865:1,2021-12-01T08:59:00Z,28.2083,-88.4183,16.8,25.8,11111222
BP,ioos:station:wmo:42865:1,2021-12-01T09:09:00Z,28.2083,-88.4183,16.7,25.9,11111222
BP,ioos:station:wmo:42865:1,2021-12-01T09:19:00Z,28.2083,-88.4183,16.7,25.8,11111222
BP,ioos:station:wmo:42865:1,2021-12-01T09:29:00Z,28.2083,-88.4183,16.7,25.9,11111222
BP,ioos:station:wmo:42865:1,2021-12-01T09:39:00Z,28.2083,-88.4183,16.7,25.8,11111222
BP,ioos:station:wmo:42865:1,2021-12-01T09:49:00Z,28.2083,-88.4183,16.7,25.9,11111222
BP,ioos:station:wmo:42865:1,2021-12-01T09:59:00Z,28.2083,-88.4183,16.7,25.9,11111222
BP,ioos:station:wmo:42865:1,2021-12-01T10:09:00Z,28.2083,-88.4183,16.7,25.9,11111222
BP,ioos:station:wmo:42865:1,2021-12-01T10:19:00Z,28.2083,-88.4183,16.7,25.9,11111222
BP,ioos:station:wmo:42865:1,2021-12-01T10:29:00Z,28.2083,-88.4183,16.7,25.9,11111222
BP,ioos:station:wmo:42865:1,2021-12-01T10:39:00Z,28.2083,-88.4183,16.7,25.9,11111222
BP,ioos:station:wmo:42865:1,2021-12-01T10:49:00Z,28.2083,-88.4183,16.7,25.9,11111222
BP,ioos:station:wmo:42865:1,2021-12-01T10:59:00Z,28.2083,-88.4183,16.7,25.9,11111222
BP,ioos:station:wmo:42865:1,2021-12-01T11:09:00Z,28.2083,-88.4183,16.8,25.9,11111222
BP,ioos:station:wmo:42865:1,2021-12-01T11:19:00Z,28.2083,-88.4183,16.7,25.9,11111222
BP,ioos:station:wmo:42865:1,2021-12-01T11:29:00Z,28.2083,-88.4183,16.8,25.9,11111222
BP,ioos:station:wmo:42865:1,2021-12-01T11:39:00Z,28.2083,-88.4183,16.7,25.9,11111222
BP,ioos:station:wmo:42865:1,2021-12-01T11:49:00Z,28.2083,-88.4183,16.7,25.9,11111222
BP,ioos:station:wmo:42865:1,2021-12-01T11:59:00Z,28.2083,-88.4183,16.7,25.8,11111222
BP,ioos:station:wmo:42865:1,2021-12-01T12:09:00Z,28.2083,-88.4183,16.7,25.8,11111222
BP,ioos:station:wmo:42865:1,2021-12-01T12:19:00Z,28.2083,-88.4183,16.7,25.8,11111222
BP,ioos:station:wmo:42865:1,2021-12-01T12:29:00Z,28.2083,-88.4183,16.7,25.8,11111222
BP,ioos:station:wmo:42865:1,2021-12-01T12:39:00Z,28.2083,-88.4183,16.7,25.9,11111222
BP,ioos:station:wmo:42865:1,2021-12-01T12:49:00Z,28.2083,-88.4183,16.7,25.9,11111222
BP,ioos:station:wmo:42865:1,2021-12-01T12:59:00Z,28.2083,-88.4183,16.7,25.9,11111222
BP,ioos:station:wmo:42865:1,2021-12-01T13:09:00Z,28.2083,-88.4183,16.7,25.9,11111222
BP,ioos:station:wmo:42865:1,2021-12-01T13:19:00Z,28.2083,-88.4183,16.7,25.9,11111222
BP,ioos:station:wmo:42865:1,2021-12-01T13:29:00Z,28.2083,-88.4183,16.7,25.9,11111222
BP,ioos:station:wmo:42865:1,2021-12-01T13:39:00Z,28.2083,-88.4183,16.7,25.9,11111222
BP,ioos:station:wmo:42865:1,2021-12-01T13:49:00Z,28.2083,-88.4183,16.7,25.9,11111222
BP,ioos:station:wmo:42865:1,2021-12-01T13:59:00Z,28.2083,-88.4183,16.7,25.9,11111222
BP,ioos:station:wmo:42865:1,2021-12-01T14:09:00Z,28.2083,-88.4183,16.7,25.9,11111222
BP,ioos:station:wmo:42865:1,2021-12-01T14:19:00Z,28.2083,-88.4183,16.7,25.9,11111222
BP,ioos:station:wmo:42865:1,2021-12-01T14:29:00Z,28.2083,-88.4183,16.7,25.9,11111222
BP,ioos:station:wmo:42865:1,2021-12-01T14:39:00Z,28.2083,-88.4183,16.7,25.9,11111222
BP,ioos:station:wmo:42865:1,2021-12-01T14:49:00Z,28.2083,-88.4183,16.7,25.9,11111222
BP,ioos:station:wmo:42865:1,2021-12-01T14:59:00Z,28.2083,-88.4183,16.7,25.9,11111222
BP,ioos:station:wmo:42865:1,2021-12-01T15:09:00Z,28.2083,-88.4183,16.7,25.8,11111222
BP,ioos:station:wmo:42865:1,2021-12-01T15:19:00Z,28.2083,-88.4183,16.7,25.8,11111222
BP,ioos:station:wmo:42865:1,2021-12-01T15:29:00Z,28.2083,-88.4183,16.8,25.8,11111222
BP,ioos:station:wmo:42865:1,2021-12-01T15:39:00Z,28.2083,-88.4183,16.7,25.8,11111222
BP,ioos:station:wmo:42865:1,2021-12-01T15:49:00Z,28.2083,-88.4183,16.8,25.8,11111222
BP,ioos:station:wmo:42865:1,2021-12-01T15:59:00Z,28.2083,-88.4183,16.7,25.8,11111222
BP,ioos:station:wmo:42865:1,2021-12-01T16:09:00Z,28.2083,-88.4183,16.8,25.8,11111222
BP,ioos:station:wmo:42865:1,2021-12-01T16:19:00Z,28.2083,-88.4183,16.8,25.8,11111222
BP,ioos:station:wmo:42865:1,2021-12-01T16:29:00Z,28.2083,-88.4183,16.8,25.8,11111222
BP,ioos:station:wmo:42865:1,2021-12-01T16:39:00Z,28.2083,-88.4183,16.8,25.8,11111222
BP,ioos:station:wmo:42865:1,2021-12-01T16:49:00Z,28.2083,-88.4183,16.7,25.8,11111222
BP,ioos:station:wmo:42865:1,2021-12-01T16:59:00Z,28.2083,-88.4183,16.7,25.9,11111222
BP,ioos:station:wmo:42865:1,2021-12-01T17:09:00Z,28.2083,-88.4183,16.7,25.9,11111222
BP,ioos:station:wmo:42865:1,2021-12-01T17:19:00Z,28.2083,-88.4183,16.7,25.9,11111222
BP,ioos:station:wmo:42865:1,2021-12-01T17:29:00Z,28.2083,-88.4183,16.7,25.9,11111222
BP,ioos:station:wmo:42865:1,2021-12-01T17:40:00Z,28.2083,-88.4183,16.7,25.9,11111222
BP,ioos:station:wmo:42865:1,2021-12-01T17:50:00Z,28.2083,-88.4183,16.7,25.9,11111222
BP,ioos:station:wmo:42865:1,2021-12-01T18:00:00Z,28.2083,-88.4183,16.7,25.9,11111222
BP,ioos:station:wmo:42865:1,2021-12-01T18:10:00Z,28.2083,-88.4183,16.7,25.9,11111222
BP,ioos:station:wmo:42865:1,2021-12-01T18:20:00Z,28.2083,-88.4183,16.7,25.9,11111222
BP,ioos:station:wmo:42865:1,2021-12-01T18:30:00Z,28.2083,-88.4183,16.7,26.0,11111222
BP,ioos:station:wmo:42865:1,2021-12-01T18:40:00Z,28.2083,-88.4183,16.7,26.0,11111222
BP,ioos:station:wmo:42865:1,2021-12-01T18:50:00Z,28.2083,-88.4183,16.7,26.0,11111222
BP,ioos:station:wmo:42865:1,2021-12-01T19:00:00Z,28.2083,-88.4183,16.7,26.0,11111222
BP,ioos:station:wmo:42865:1,2021-12-01T19:10:00Z,28.2083,-88.4183,16.7,26.0,11111222
BP,ioos:station:wmo:42865:1,2021-12-01T19:20:00Z,28.2083,-88.4183,16.7,26.0,11111222
BP,ioos:station:wmo:42865:1,2021-12-01T19:30:00Z,28.2083,-88.4183,16.7,26.1,11111222
BP,ioos:station:wmo:42865:1,2021-12-01T19:40:00Z,28.2083,-88.4183,16.7,26.1,11111222
BP,ioos:station:wmo:42865:1,2021-12-01T19:50:00Z,28.2083,-88.4183,16.8,26.1,11111222
BP,ioos:station:wmo:42865:1,2021-12-01T20:00:00Z,28.2083,-88.4183,16.8,26.1,11111222
BP,ioos:station:wmo:42865:1,2021-12-01T20:10:00Z,28.2083,-88.4183,16.9,26.1,11111222
BP,ioos:station:wmo:42865:1,2021-12-01T20:20:00Z,28.2083,-88.4183,16.7,26.1,11111222
BP,ioos:station:wmo:42865:1,2021-12-01T20:30:00Z,28.2083,-88.4183,16.7,26.1,11111222
BP,ioos:station:wmo:42865:1,2021-12-01T20:40:00Z,28.2083,-88.4183,16.8,26.1,11111222
BP,ioos:station:wmo:42865:1,2021-12-01T20:50:00Z,28.2083,-88.4183,16.7,26.1,11111222
BP,ioos:station:wmo:42865:1,2021-12-01T21:00:00Z,28.2083,-88.4183,16.6,26.1,11111222
BP,ioos:station:wmo:42865:1,2021-12-01T21:10:00Z,28.2083,-88.4183,16.5,26.1,11111222
BP,ioos:station:wmo:42865:1,2021-12-01T21:20:00Z,28.2083,-88.4183,16.5,26.1,11111222
BP,ioos:station:wmo:42865:1,2021-12-01T21:30:00Z,28.2083,-88.4183,16.6,26.1,11111222
BP,ioos:station:wmo:42865:1,2021-12-01T21:40:00Z,28.2083,-88.4183,16.6,26.1,11111222
BP,ioos:station:wmo:42865:1,2021-12-01T21:50:00Z,28.2083,-88.4183,16.7,26.1,11111222
BP,ioos:station:wmo:42865:1,2021-12-01T22:00:00Z,28.2083,-88.4183,16.7,26.1,11111222
BP,ioos:station:wmo:42865:1,2021-12-01T22:10:00Z,28.2083,-88.4183,16.7,26.1,11111222
BP,ioos:station:wmo:42865:1,2021-12-01T22:20:00Z,28.2083,-88.4183,16.7,26.1,11111222
BP,ioos:station:wmo:42865:1,2021-12-01T22:30:00Z,28.2083,-88.4183,16.7,26.1,11111222
BP,ioos:station:wmo:42865:1,2021-12-01T22:40:00Z,28.2083,-88.4183,16.8,26.1,11111222
BP,ioos:station:wmo:42865:1,2021-12-01T22:50:00Z,28.2083,-88.4183,16.8,26.1,11111222
BP,ioos:station:wmo:42865:1,2021-12-01T23:00:00Z,28.2083,-88.4183,16.8,26.1,11111222
BP,ioos:station:wmo:42865:1,2021-12-01T23:10:00Z,28.2083,-88.4183,16.7,26.1,11111222
BP,ioos:station:wmo:42865:1,2021-12-01T23:20:00Z,28.2083,-88.4183,16.7,26.1,11111222
BP,ioos:station:wmo:42865:1,2021-12-01T23:30:00Z,28.2083,-88.4183,16.7,26.1,11111222
BP,ioos:station:wmo:42865:1,2021-12-01T23:40:00Z,28.2083,-88.4183,16.8,26.1,11111222
BP,ioos:station:wmo:42865:1,2021-12-01T23:50:00Z,28.2083,-88.4183,16.7,26.1,11111222
BP,ioos:station:wmo:42865:1,2021-12-02T00:00:00Z,28.2083,-88.4183,16.8,26.0,11111222
BP,ioos:station:wmo:42865:1,2021-12-02T00:10:00Z,28.2083,-88.4183,16.9,26.0,11111222
BP,ioos:station:wmo:42865:1,2021-12-02T00:20:00Z,28.2083,-88.4183,16.9,26.0,11111222
BP,ioos:station:wmo:42865:1,2021-12-02T00:30:00Z,28.2083,-88.4183,16.6,26.0,11111222
BP,ioos:station:wmo:42865:1,2021-12-02T00:40:00Z,28.2083,-88.4183,16.6,26.0,11111222
BP,ioos:station:wmo:42865:1,2021-12-02T00:50:00Z,28.2083,-88.4183,16.6,26.0,11111222
BP,ioos:station:wmo:42865:1,2021-12-02T01:00:00Z,28.2083,-88.4183,16.5,26.0,11111222
BP,ioos:station:wmo:42865:1,2021-12-02T01:10:00Z,28.2083,-88.4183,16.5,26.0,11111222
BP,ioos:station:wmo:42865:1,2021-12-02T01:20:00Z,28.2083,-88.4183,16.6,25.9,11111222
BP,ioos:station:wmo:42865:1,2021-12-02T01:30:00Z,28.2083,-88.4183,16.6,25.9,11111222
BP,ioos:station:wmo:42865:1,2021-12-02T01:40:00Z,28.2083,-88.4183,16.7,25.9,11111222
BP,ioos:station:wmo:42865:1,2021-12-02T01:50:00Z,28.2083,-88.4183,16.6,25.9,11111222
BP,ioos:station:wmo:42865:1,2021-12-02T02:00:00Z,28.2083,-88.4183,16.7,25.9,11111222
BP,ioos:station:wmo:42865:1,2021-12-02T02:10:00Z,28.2083,-88.4183,16.6,25.8,11111222
BP,ioos:station:wmo:42865:1,2021-12-02T02:20:00Z,28.2083,-88.4183,16.7,25.9,11111222
BP,ioos:station:wmo:42865:1,2021-12-02T02:30:00Z,28.2083,-88.4183,16.6,25.9,11111222
BP,ioos:station:wmo:42865:1,2021-12-02T02:40:00Z,28.2083,-88.4183,16.7,25.8,11111222
BP,ioos:station:wmo:42865:1,2021-12-02T02:50:00Z,28.2083,-88.4183,16.7,25.8,11111222
BP,ioos:station:wmo:42865:1,2021-12-02T03:00:00Z,28.2083,-88.4183,16.7,25.7,11111222
BP,ioos:station:wmo:42865:1,2021-12-02T03:10:00Z,28.2083,-88.4183,16.7,25.8,11111222
BP,ioos:station:wmo:42865:1,2021-12-02T03:20:00Z,28.2083,-88.4183,16.6,25.8,11111222
BP,ioos:station:wmo:42865:1,2021-12-02T03:30:00Z,28.2083,-88.4183,16.6,25.8,11111222
BP,ioos:station:wmo:42865:1,2021-12-02T03:40:00Z,28.2083,-88.4183,16.6,25.8,11111222
BP,ioos:station:wmo:42865:1,2021-12-02T03:50:00Z,28.2083,-88.4183,16.8,25.8,11111222
BP,ioos:station:wmo:42865:1,2021-12-02T04:00:00Z,28.2083,-88.4183,16.7,25.7,11111222
BP,ioos:station:wmo:42865:1,2021-12-02T04:10:00Z,28.2083,-88.4183,16.6,25.7,11111222
BP,ioos:station:wmo:42865:1,2021-12-02T04:20:00Z,28.2083,-88.4183,16.7,25.7,11111222
BP,ioos:station:wmo:42865:1,2021-12-02T04:30:00Z,28.2083,-88.4183,16.7,25.7,11111222
BP,ioos:station:wmo:42865:1,2021-12-02T04:40:00Z,28.2083,-88.4183,16.6,25.7,11111222
BP,ioos:station:wmo:42865:1,2021-12-02T04:50:00Z,28.2083,-88.4183,16.6,25.6,11111222
BP,ioos:station:wmo:42865:1,2021-12-02T05:00:00Z,28.2083,-88.4183,16.5,25.6,11111222
BP,ioos:station:wmo:42865:1,2021-12-02T05:10:00Z,28.2083,-88.4183,16.5,25.5,11111222
BP,ioos:station:wmo:42865:1,2021-12-02T05:20:00Z,28.2083,-88.4183,16.5,25.5,11111222
BP,ioos:station:wmo:42865:1,2021-12-02T05:30:00Z,28.2083,-88.4183,16.6,25.5,11111222
BP,ioos:station:wmo:42865:1,2021-12-02T05:40:00Z,28.2083,-88.4183,16.6,25.4,11111222
BP,ioos:station:wmo:42865:1,2021-12-02T05:50:00Z,28.2083,-88.4183,16.6,25.4,11111222
BP,ioos:station:wmo:42865:1,2021-12-02T06:00:00Z,28.2083,-88.4183,16.6,25.3,11111222
BP,ioos:station:wmo:42865:1,2021-12-02T06:10:00Z,28.2083,-88.4183,16.6,25.2,11111222
BP,ioos:station:wmo:42865:1,2021-12-02T06:20:00Z,28.2083,-88.4183,16.6,25.1,11111222
BP,ioos:station:wmo:42865:1,2021-12-02T06:30:00Z,28.2083,-88.4183,16.7,25.1,11111222
BP,ioos:station:wmo:42865:1,2021-12-02T06:40:00Z,28.2083,-88.4183,16.7,25.5,11111222
BP,ioos:station:wmo:42865:1,2021-12-02T06:50:00Z,28.2083,-88.4183,16.6,25.6,11111222
BP,ioos:station:wmo:42865:1,2021-12-02T07:00:00Z,28.2083,-88.4183,16.6,25.6,11111222
BP,ioos:station:wmo:42865:1,2021-12-02T07:10:00Z,28.2083,-88.4183,16.6,25.7,11111222
BP,ioos:station:wmo:42865:1,2021-12-02T07:20:00Z,28.2083,-88.4183,16.7,25.8,11111222
BP,ioos:station:wmo:42865:1,2021-12-02T07:30:00Z,28.2083,-88.4183,16.7,25.8,11111222
BP,ioos:station:wmo:42865:1,2021-12-02T07:40:00Z,28.2083,-88.4183,16.6,25.8,11111222
BP,ioos:station:wmo:42865:1,2021-12-02T07:50:00Z,28.2083,-88.4183,16.7,25.8,11111222
BP,ioos:station:wmo:42865:1,2021-12-02T08:00:00Z,28.2083,-88.4183,16.7,25.8,11111222
BP,ioos:station:wmo:42865:1,2021-12-02T08:10:00Z,28.2083,-88.4183,16.7,25.8,11111222
BP,ioos:station:wmo:42865:1,2021-12-02T08:20:00Z,28.2083,-88.4183,16.7,25.8,11111222
BP,ioos:station:wmo:42865:1,2021-12-02T08:31:00Z,28.2083,-88.4183,16.7,25.8,11111222
BP,ioos:station:wmo:42865:1,2021-12-02T08:41:00Z,28.2083,-88.4183,16.8,25.8,11111222
BP,ioos:station:wmo:42865:1,2021-12-02T08:51:00Z,28.2083,-88.4183,16.8,25.8,11111222
BP,ioos:station:wmo:42865:1,2021-12-02T09:01:00Z,28.2083,-88.4183,16.8,25.8,11111222
BP,ioos:station:wmo:42865:1,2021-12-02T09:11:00Z,28.2083,-88.4183,16.7,25.8,11111222
BP,ioos:station:wmo:42865:1,2021-12-02T09:21:00Z,28.2083,-88.4183,16.7,25.8,11111222
BP,ioos:station:wmo:42865:1,2021-12-02T09:31:00Z,28.2083,-88.4183,16.7,25.8,11111222
BP,ioos:station:wmo:42865:1,2021-12-02T09:41:00Z,28.2083,-88.4183,16.6,25.8,11111222
BP,ioos:station:wmo:42865:1,2021-12-02T09:51:00Z,28.2083,-88.4183,16.7,25.8,11111222
BP,ioos:station:wmo:42865:1,2021-12-02T10:01:00Z,28.2083,-88.4183,16.6,25.8,11111222
BP,ioos:station:wmo:42865:1,2021-12-02T10:11:00Z,28.2083,-88.4183,16.6,25.8,11111222
BP,ioos:station:wmo:42865:1,2021-12-02T10:21:00Z,28.2083,-88.4183,16.6,25.8,11111222
BP,ioos:station:wmo:42865:1,2021-12-02T10:31:00Z,28.2083,-88.4183,16.6,25.8,11111222
BP,ioos:station:wmo:42865:1,2021-12-02T10:41:00Z,28.2083,-88.4183,16.6,25.8,11111222
BP,ioos:station:wmo:42865:1,2021-12-02T10:51:00Z,28.2083,-88.4183,16.7,25.8,11111222
BP,ioos:station:wmo:42865:1,2021-12-02T11:01:00Z,28.2083,-88.4183,16.7,25.8,11111222
BP,ioos:station:wmo:42865:1,2021-12-02T11:11:00Z,28.2083,-88.4183,16.7,25.8,11111222
BP,ioos:station:wmo:42865:1,2021-12-02T11:21:00Z,28.2083,-88.4183,16.7,25.8,11111222
BP,ioos:station:wmo:42865:1,2021-12-02T11:31:00Z,28.2083,-88.4183,16.7,25.8,11111222
BP,ioos:station:wmo:42865:1,2021-12-02T11:41:00Z,28.2083,-88.4183,16.7,25.8,11111222
BP,ioos:station:wmo:42865:1,2021-12-02T11:51:00Z,28.2083,-88.4183,16.8,25.8,11111222
BP,ioos:station:wmo:42865:1,2021-12-02T12:01:00Z,28.2083,-88.4183,16.7,25.8,11111222
BP,ioos:station:wmo:42865:1,2021-12-02T12:11:00Z,28.2083,-88.4183,16.6,25.8,11111222
BP,ioos:station:wmo:42865:1,2021-12-02T12:21:00Z,28.2083,-88.4183,16.6,25.8,11111222
BP,ioos:station:wmo:42865:1,2021-12-02T12:31:00Z,28.2083,-88.4183,16.6,25.8,11111222
BP,ioos:station:wmo:42865:1,2021-12-02T12:41:00Z,28.2083,-88.4183,16.3,25.8,11111222
BP,ioos:station:wmo:42865:1,2021-12-02T12:51:00Z,28.2083,-88.4183,16.5,25.8,11111222
BP,ioos:station:wmo:42865:1,2021-12-02T13:01:00Z,28.2083,-88.4183,16.6,25.8,11111222
BP,ioos:station:wmo:42865:1,2021-12-02T13:11:00Z,28.2083,-88.4183,16.7,25.8,11111222
BP,ioos:station:wmo:42865:1,2021-12-02T13:21:00Z,28.2083,-88.4183,16.7,25.8,11111222
BP,ioos:station:wmo:42865:1,2021-12-02T13:31:00Z,28.2083,-88.4183,16.7,25.8,11111222
BP,ioos:station:wmo:42865:1,2021-12-02T13:41:00Z,28.2083,-88.4183,16.6,25.8,11111222
BP,ioos:station:wmo:42865:1,2021-12-02T13:51:00Z,28.2083,-88.4183,16.4,25.8,11111222
BP,ioos:station:wmo:42865:1,2021-12-02T14:01:00Z,28.2083,-88.4183,16.5,25.8,11111222
BP,ioos:station:wmo:42865:1,2021-12-02T14:11:00Z,28.2083,-88.4183,16.6,25.8,11111222
BP,ioos:station:wmo:42865:1,2021-12-02T14:21:00Z,28.2083,-88.4183,16.7,25.8,11111222
BP,ioos:station:wmo:42865:1,2021-12-02T14:31:00Z,28.2083,-88.4183,16.7,25.9,11111222
BP,ioos:station:wmo:42865:1,2021-12-02T14:41:00Z,28.2083,-88.4183,16.7,25.9,11111222
BP,ioos:station:wmo:42865:1,2021-12-02T14:51:00Z,28.2083,-88.4183,16.7,25.9,11111222
BP,ioos:station:wmo:42865:1,2021-12-02T15:01:00Z,28.2083,-88.4183,16.7,25.9,11111222
BP,ioos:station:wmo:42865:1,2021-12-02T15:11:00Z,28.2083,-88.4183,16.8,25.9,11111222
BP,ioos:station:wmo:42865:1,2021-12-02T15:21:00Z,28.2083,-88.4183,16.7,25.9,11111222
BP,ioos:station:wmo:42865:1,2021-12-02T15:31:00Z,28.2083,-88.4183,16.6,25.9,11111222
BP,ioos:station:wmo:42865:1,2021-12-02T15:41:00Z,28.2083,-88.4183,16.7,25.9,11111222
BP,ioos:station:wmo:42865:1,2021-12-02T15:51:00Z,28.2083,-88.4183,16.8,25.9,11111222
BP,ioos:station:wmo:42865:1,2021-12-02T16:01:00Z,28.2083,-88.4183,16.7,25.9,11111222
BP,ioos:station:wmo:42865:1,2021-12-02T16:11:00Z,28.2083,-88.4183,16.7,25.9,11111222
BP,ioos:station:wmo:42865:1,2021-12-02T16:21:00Z,28.2083,-88.4183,16.6,26.0,11111222
BP,ioos:station:wmo:42865:1,2021-12-02T16:31:00Z,28.2083,-88.4183,16.7,26.0,11111222
BP,ioos:station:wmo:42865:1,2021-12-02T16:41:00Z,28.2083,-88.4183,16.6,26.0,11111222
BP,ioos:station:wmo:42865:1,2021-12-02T16:51:00Z,28.2083,-88.4183,16.6,26.0,11111222
BP,ioos:station:wmo:42865:1,2021-12-02T17:01:00Z,28.2083,-88.4183,16.6,26.0,11111222
BP,ioos:station:wmo:42865:1,2021-12-02T17:11:00Z,28.2083,-88.4183,16.7,26.0,11111222
BP,ioos:station:wmo:42865:1,2021-12-02T17:21:00Z,28.2083,-88.4183,16.6,26.0,11111222
BP,ioos:station:wmo:42865:1,2021-12-02T17:31:00Z,28.2083,-88.4183,16.7,26.1,11111222
BP,ioos:station:wmo:42865:1,2021-12-02T17:41:00Z,28.2083,-88.4183,16.6,26.1,11111222
BP,ioos:station:wmo:42865:1,2021-12-02T17:51:00Z,28.2083,-88.4183,16.7,26.1,11111222
BP,ioos:station:wmo:42865:1,2021-12-02T18:01:00Z,28.2083,-88.4183,16.5,26.1,11111222
BP,ioos:station:wmo:42865:1,2021-12-02T18:11:00Z,28.2083,-88.4183,16.6,26.1,11111222
BP,ioos:station:wmo:42865:1,2021-12-02T18:21:00Z,28.2083,-88.4183,16.7,26.1,11111222
BP,ioos:station:wmo:42865:1,2021-12-02T18:31:00Z,28.2083,-88.4183,16.7,26.1,11111222
BP,ioos:station:wmo:42865:1,2021-12-02T18:41:00Z,28.2083,-88.4183,16.6,26.1,11111222
BP,ioos:station:wmo:42865:1,2021-12-02T18:51:00Z,28.2083,-88.4183,16.7,26.1,11111222
BP,ioos:station:wmo:42865:1,2021-12-02T19:01:00Z,28.2083,-88.4183,16.8,26.1,11111222
BP,ioos:station:wmo:42865:1,2021-12-02T19:11:00Z,28.2083,-88.4183,16.6,26.1,11111222
BP,ioos:station:wmo:42865:1,2021-12-02T19:21:00Z,28.2083,-88.4183,16.5,26.1,11111222
BP,ioos:station:wmo:42865:1,2021-12-02T19:31:00Z,28.2083,-88.4183,16.5,26.1,11111222
BP,ioos:station:wmo:42865:1,2021-12-02T19:41:00Z,28.2083,-88.4183,16.4,26.1,11111222
BP,ioos:station:wmo:42865:1,2021-12-02T19:51:00Z,28.2083,-88.4183,16.4,26.1,11111222
BP,ioos:station:wmo:42865:1,2021-12-02T20:01:00Z,28.2083,-88.4183,16.5,26.1,11111222
BP,ioos:station:wmo:42865:1,2021-12-02T20:11:00Z,28.2083,-88.4183,16.6,26.1,11111222
BP,ioos:station:wmo:42865:1,2021-12-02T20:21:00Z,28.2083,-88.4183,16.6,26.1,11111222
BP,ioos:station:wmo:42865:1,2021-12-02T20:31:00Z,28.2083,-88.4183,16.6,26.1,11111222
BP,ioos:station:wmo:42865:1,2021-12-02T20:41:00Z,28.2083,-88.4183,16.5,26.1,11111222
BP,ioos:station:wmo:42865:1,2021-12-02T20:51:00Z,28.2083,-88.4183,16.6,26.1,11111222
BP,ioos:station:wmo:42865:1,2021-12-02T21:01:00Z,28.2083,-88.4183,16.5,26.0,11111222
BP,ioos:station:wmo:42865:1,2021-12-02T21:11:00Z,28.2083,-88.4183,16.6,26.0,11111222
BP,ioos:station:wmo:42865:1,2021-12-02T21:21:00Z,28.2083,-88.4183,16.6,25.9,11111222
BP,ioos:station:wmo:42865:1,2021-12-02T21:31:00Z,28.2083,-88.4183,16.7,25.9,11111222
BP,ioos:station:wmo:42865:1,2021-12-02T21:41:00Z,28.2083,-88.4183,16.7,25.9,11111222
BP,ioos:station:wmo:42865:1,2021-12-02T21:51:00Z,28.2083,-88.4183,16.5,26.0,11111222
BP,ioos:station:wmo:42865:1,2021-12-02T22:01:00Z,28.2083,-88.4183,16.4,26.0,11111222
BP,ioos:station:wmo:42865:1,2021-12-02T22:11:00Z,28.2083,-88.4183,16.5,26.0,11111222
BP,ioos:station:wmo:42865:1,2021-12-02T22:21:00Z,28.2083,-88.4183,16.6,25.9,11111222